STARLINK-1458, 45675

Orbit data source: Space-Track

STARLINK-1458, 45675 is a payload satellite owned by SpaceX/Seattle (US) in LEO that was launched on Thu, 04 Jun 2020 UTC via an FALCON 9 launch vehicle from the Air Force Eastern Test Range (AFETR). Payload-class satellites include a variety of spacecraft equipped with specific instruments for various scientific and technological missions. These include communications satellites like Starlink; space stations such as the ISS; scientific satellites like the Hubble; Earth observation satellites from companies like Planet Labs, Umbra, and HawkEye 360; GPS; miniature CubeSats for education and research; and military/defense satellites.

Loading next visibility...
Identifier
45675, 2020-035U
Orbit
LEO
Country
Flag of USUS
Related business
Manufacturer
SpaceX/Seattle
Mission
Operational Commercial Communications
Bus & Motor
STARLINK, Unknown motor
Mass
260 kg wet, ~248 kg dry
Launch date (UTC)
2020-06-04 (6 years ago)
Launch vehicle
FALCON 9
Launch site
Air Force Eastern Test Range (AFETR)
Object type
Payload
Rocket body
Debris
Shape & HBR
Box + 1 Pan, 10.1 m
Radar Cross Section
13.562 m², Large (>1 m²)

Expand to show TLE details & history
Last TLE update: 16 hours ago

TLE from 16 hours ago
0 STARLINK-1458
1 45675U 20035U   25348.67402973 -.00001738  00000-0 -97855-4 0  9996
2 45675  53.0550  88.2679 0001212  90.1553 269.9575 15.06393438305885
Epoch: 2025-12-14T16:10Z
TLE epoch observation values (Epoch: 2025-12-14T16:10:36.168Z)
Latitude
-0.00002°
Longitude
122.03362°
Altitude
548.112 km
Speed
7.589 km/s
True Right ascension
05h 53m 04s
True Declination
0° 00' 00"
Sunlit
Object was in full shadow at epoch
Visualization orbit readout
Latitude
Unknown
Longitude
Unknown
Altitude
Unknown
Speed
Unknown
Apparent Right ascension
Unknown
Apparent Declination
Unknown
Sunlit
N/A
Visualization observer readout
Local Sidereal Time
06:46:38
Azimuth
Unknown
Elevation
Unknown
Doppler factor
Unknown
Orbital elements
Apogee altitude
548.342 km
Perigee altitude
546.663 km
Semi-major axis
6,925.639 km
Eccentricity
0.00012
Inclination
53.055°
RAAN
88.2679°
Arg. of periapsis
90.1553°
True anomaly
269.94361°
Mean anomaly
269.9575°
Eccentric anomaly
269.95056°
Mean motion
3.76577 °/min
Orbital period
95.6 mins
BSTAR
-0.000097855
Loading maneuver chart data...
Computing Atmospheric mass density...

Documentation

Showing up to 5 results
|